Overview Statistics Trail Chart Weather Telemetry Raw packets
 

This is the latest recevied weather packets stored in our database for station/object N5ATR. If no packets are shown the sender has not sent any weather packets the latest 10 day(s).

<< 85 86 87 88 89 90 91 >>
Time Temp. Humidity Pressure Rain* Wind** Luminosity Snow
1788066525 20° C 57% 1023.9 hPa 0 mm - 0 W/m² -
1788066220 20° C 56% 1024 hPa 0 mm - 0 W/m² -
1788065918 20° C 56% 1023.9 hPa 0 mm - 0 W/m² -
1788065613 20° C 56% 1023.9 hPa 0 mm - 0 W/m² -
1788065313 20° C 57% 1023.5 hPa 0 mm - 0 W/m² -
1788065009 20° C 57% 1023.9 hPa 0 mm - 0 W/m² -
1788064704 20° C 57% 1023.8 hPa 0 mm - 0 W/m² -
1788064404 20° C 57% 1024 hPa 0 mm - 0 W/m² -
1788064101 20° C 57% 1024.1 hPa 0 mm - 0 W/m² -
1788063797 20° C 56% 1024.2 hPa 0 mm - 0 W/m² -
1788063495 20.56° C 55% 1024 hPa 0 mm - 0 W/m² -
1788063195 20.56° C 55% 1024.2 hPa 0 mm - 0 W/m² -
1788062890 20.56° C 53% 1024.2 hPa 0 mm - 0 W/m² -
1788062587 21.11° C 52% 1024.1 hPa 0 mm - 0 W/m² -
1788062285 21.67° C 50% 1024.4 hPa 0 mm - 0 W/m² -
1788061979 22.22° C 48% 1023.6 hPa 0 mm - 0 W/m² -
1788061675 22.78° C 44% 1023.4 hPa 0 mm - 0 W/m² -
1788061374 22.78° C 44% 1023.6 hPa 0 mm - 0 W/m² -
1788061070 22.78° C 43% 1023.3 hPa 0 mm - 0 W/m² -
1788060770 22.78° C 43% 1023.3 hPa 0 mm - 0 W/m² -
1788060466 23.33° C 42% 1023.1 hPa 0 mm - 0 W/m² -
1788060165 23.33° C 41% 1023 hPa 0 mm - 0 W/m² -
1788059860 23.33° C 41% 1022.9 hPa 0 mm - 0 W/m² -
1788059556 22.78° C 44% 1023.1 hPa 0 mm - 0 W/m² -
1788059251 23.33° C 44% 1022.9 hPa 0 mm - 0 W/m² -

* Rain latest hour (hover to see other rain measurements)
** Current wind speed in m/s (hover to see current wind gust speed)